Home   Weather   Osnabrück   Past weeks

Flag for Germany Past Weather in Osnabrück, Lower Saxony, Germany — Yesterday and Last 2 Weeks

Now
46 °F

Scattered clouds.


Feels Like: 43 °F
Forecast: 31 / 52 °F
Wind: 7 mph from Southwest

Location: Muenster / Osnabrueck

Current Time: Apr 26, 2017 at 1:49:11 pm

Latest Report: Apr 26, 2017 at 12:50 pm


Visibility: N/A

Pressure: 29.89 "Hg

Humidity: 57%

Dew Point: 32 °F

Location of OsnabrückLocation

Past Weather in Osnabrück — Graph

°F

Osnabrück Temperature Yesterday

Maximum temperature yesterday: 50 °F (at 12:20 am)
Minimum temperature yesterday: 37 °F (at 11:20 pm)
Average temperature yesterday: 44 °F

High & Low Weather Summary for the Past Weeks

 TemperatureHumidityPressure
High57 °F (Apr 24, 1:50 pm)100% (Apr 12, 11:50 pm)30.63 "Hg (Apr 12, 11:50 pm)
Low27 °F (Apr 20, 4:20 am)30% (Apr 20, 4:50 pm)29.65 "Hg (Apr 25, 3:20 am)
Average45 °F71%30.12 "Hg
* Reported Apr 11 12:20 pm — Apr 26 12:20 pm, Osnabrück, Weather by CustomWeather, © 2017

Note: Actual official high and low records may vary slightly from our data, if they occured in-between our weather recording intervals... More about our weather records

Advertising

Osnabrück Weather History for the Previous 24 Hours

Scroll right to see more
 ConditionsComfort  
Time TempWeatherWind HumidityBarometerVisibility
12:20 pm
Wed, Apr 26
48 °FBroken clouds.5 mph54%29.89 "HgN/A
11:50 am45 °FPartly sunny.3 mph61%29.89 "HgN/A
11:20 am46 °FScattered clouds.7 mph66%29.86 "HgN/A
10:50 am45 °FPartly sunny.2 mph66%29.86 "HgN/A
10:20 am43 °FPartly sunny.2 mph76%29.86 "HgN/A
9:50 am41 °FPartly sunny.1 mph76%29.86 "HgN/A
9:20 am39 °FPartly sunny.2 mph87%29.86 "HgN/A
8:50 am37 °FPartly sunny.2 mph87%29.86 "HgN/A
8:20 am36 °FPartly sunny.3 mph93%29.86 "HgN/A
7:50 am34 °FPartly sunny.2 mph93%29.86 "HgN/A
7:20 am30 °FScattered clouds.2 mph100%29.86 "HgN/A
6:50 am28 °FFog.1 mph100%29.83 "HgN/A
6:20 am28 °FFog.2 mph100%29.83 "HgN/A
5:50 am28 °FFog.1 mph93%29.83 "HgN/A
5:20 am30 °FClear.2 mph93%29.83 "Hg10 mi
4:50 am30 °FClear.1 mph100%29.83 "Hg10 mi
4:20 am32 °FClear.1 mph93%29.83 "Hg10 mi
3:50 am34 °FPassing clouds.5 mph87%29.83 "HgN/A
3:20 am34 °FPassing clouds.5 mph93%29.83 "HgN/A
2:50 am32 °FClear.1 mph93%29.83 "Hg10 mi
2:20 am34 °FPassing clouds.5 mph87%29.83 "HgN/A
1:50 am37 °FClear.6 mph81%29.83 "Hg10 mi
1:20 am37 °FClear.5 mph75%29.83 "Hg10 mi
12:50 am36 °FClear.3 mph81%29.80 "Hg10 mi
12:20 am37 °FPassing clouds.3 mph75%29.83 "HgN/A
11:50 pm
Tue, Apr 25
37 °FClear.3 mph75%29.83 "Hg10 mi
11:20 pm37 °FClear.5 mph70%29.83 "Hg10 mi
10:50 pm39 °FClear.7 mph65%29.83 "Hg10 mi
10:20 pm41 °FClear.6 mph53%29.83 "Hg10 mi
9:50 pm41 °FClear.5 mph53%29.80 "Hg10 mi
9:20 pm39 °FClear.6 mph56%29.80 "Hg10 mi
8:50 pm43 °FClear.5 mph57%29.80 "Hg10 mi
8:20 pm45 °FScattered clouds.8 mph53%29.80 "HgN/A
7:50 pm46 °FScattered clouds.12 mph46%29.80 "HgN/A
7:20 pm46 °FScattered clouds.10 mph46%29.80 "HgN/A
6:50 pm48 °FSprinkles. Scattered clouds.13 mph50%29.80 "HgN/A
6:20 pm48 °FScattered showers. Passing clouds.9 mph50%29.77 "HgN/A
5:50 pm48 °FScattered showers. Passing clouds.12 mph50%29.77 "HgN/A
5:20 pm48 °FSprinkles. Passing clouds.10 mph50%29.77 "HgN/A
4:50 pm46 °FSprinkles. Scattered clouds.16 mph53%29.77 "HgN/A
4:20 pm48 °FScattered showers. Passing clouds.16 mph54%29.77 "HgN/A
3:50 pm48 °FPassing clouds.17 mph54%29.77 "HgN/A
3:20 pm48 °FScattered showers. Passing clouds.17 mph58%29.74 "HgN/A
2:50 pm48 °FSprinkles. Scattered clouds.20 mph54%29.74 "HgN/A
2:20 pm50 °FScattered showers. Scattered clouds.17 mph54%29.74 "HgN/A
1:50 pm46 °FScattered showers. Scattered clouds.17 mph66%29.71 "HgN/A
1:20 pm45 °FScattered showers. Scattered clouds.15 mph76%29.71 "HgN/A
Weather by CustomWeather, © 2017

See weather overviewHow to use our weather pages